TJS-7

Last updated on Tue Sep 16 2025 00:02:50 GMT+0000 (Coordinated Universal Time)

1 49115U 21077A 25258.56481587 -.00000140 00000+0 00000+0 0 9997 2 49115 0.2090 267.6519 0001452 214.7996 336.1414 1.00269609 6796
UTC large
Height (km)
Speed (km/s)
/
Latitude / Longitude
Inclination (degrees)
Orbital Period (minutes)
Azimuth
Elevation
Range (km)
Doppler Factor

Next 0 passes for location: London (51.5072 / 0.1276)

Sorry there are no passes over London.